Location: Hamburg
(53.5500°N, 10.0000°E)
Time: 17:20:22
(UTC+02:00)

Vanguard 1 Rocket - Visible Passes

Search period start: 31 August 2015 00:00
Search period end: 10 September 2015 00:00
Orbit: 652 x 4226 km, 34.3° (Epoch: 30 August)

Date Brightness Start Highest point End Pass type
(mag) Time Alt. Az. Time Alt. Az. Time Alt. Az.
31 Aug 9.8 22:33:03 10° SW 22:36:33 14° S 22:37:37 13° S visible
01 Sep 9.6 21:23:03 10° SSW 21:25:53 13° S 21:29:21 10° SSE visible
03 Sep 9.7 21:28:21 10° SSW 21:29:03 10° S 21:29:43 10° S visible
